Hourly Data Report for August 25, 2017

TORONTO CITY
ONTARIO

43°40'00.000" N
79°24'00.000" W
112.50 m
6158355
71508
XTO

Download Data

Hourly Data (August 2017)
Hourly Data Report for August 25, 2017
TIME
LST
Temp Definition
°C
Dew Point Definition
°C
Rel Hum Definition
%
Precip. Amount Definition
mm

Wind Dir Definition
10's deg

Wind Spd Definition
km/h
Visibility Definition
km
Stn Press Definition
kPa
Hmdx Definition


Wind Chill Definition


Weather Definition


00:00 14.8 8.6 66 0.0 LegendMM LegendMM   100.58     LegendNANA
01:00 14.0 8.4 69 0.0 LegendMM LegendMM   100.61     LegendNANA
02:00 13.6 8.4 71 0.0 LegendMM LegendMM   100.65     LegendNANA
03:00 12.5 8.4 76 0.0 LegendMM LegendMM   100.67     LegendNANA
04:00 13.1 7.7 70 0.0 LegendMM LegendMM   100.72     LegendNANA
05:00 12.7 6.9 68 0.0 LegendMM LegendMM   100.78     LegendNANA
06:00 12.5 7.7 72 0.0 LegendMM LegendMM   100.84     LegendNANA
07:00 14.2 7.8 65 0.0 LegendMM LegendMM   100.88     LegendNANA
08:00 16.2 7.1 55 0.0 LegendMM LegendMM   100.94     LegendNANA
09:00 17.7 6.7 48 0.0 LegendMM LegendMM   100.98     LegendNANA
10:00 19.3 4.9 39 0.0 LegendMM LegendMM   100.99     LegendNANA
11:00 19.5 2.6 32 0.0 LegendMM LegendMM   100.99     LegendNANA
12:00 20.7 3.2 31 0.0 LegendMM LegendMM   100.97     LegendNANA
13:00 20.8 3.4 32 0.0 LegendMM LegendMM   100.98     LegendNANA
14:00 20.5 3.8 33 0.0 LegendMM LegendMM   100.94     LegendNANA
15:00 20.6 5.3 37 0.0 LegendMM LegendMM   100.94     LegendNANA
16:00 19.6 5.7 40 0.0 LegendMM LegendMM   100.95     LegendNANA
17:00 18.9 5.7 42 0.0 LegendMM LegendMM   100.96     LegendNANA
18:00 18.8 5.9 43 0.0 LegendMM LegendMM   100.97     LegendNANA
19:00 17.1 6.3 49 0.0 LegendMM LegendMM   101.00     LegendNANA
20:00 17.0 7.1 52 0.0 LegendMM LegendMM   101.05     LegendNANA
21:00 16.6 5.4 48 0.0 LegendMM LegendMM   101.11     LegendNANA
22:00 15.9 4.1 45 0.0 LegendMM LegendMM   101.15     LegendNANA
23:00 15.7 4.2 46 0.0 LegendMM LegendMM   101.17     LegendNANA

Notes on Data Quality.

Legend

  • E = Estimated
  • M = Missing
  • NA = Not Available*
  • [empty] = Indicates an unobserved value
Date modified: